CAPE
1727 1681 1574 1660 1731 1683 2061 2194 2241 2460 2870 2697 3003 3240 3416 3564 3681 3709 3677 3677 3549 3437 3482 3611 3897 4228 4214 4254 4473 4066 3885 3629 3257 3250 3337 3057 2683 2165 1721 2079 2326 2267
1709 1677 1712 1568 1889 1908 2132 2144 2365 2537 2962 3050 2894 3274 3513 3646 3738 3731 3882 3820 3827 3644 3828 3933 4106 4219 4279 3978 4368 4120 4062 4019 3787 2975 3334 3382 3101 2808 2087 1986 1864 2096
1621 1603 1491 1438 1275 1349 1097 1566 2111 2388 2504 2514 2705 3064 3191 3341 3420 3561 3788 3749 3585 3373 3935 4042 4110 4176 4144 4124 4328 4064 3718 4193 3776 3154 3479 3327 3031 3144 2778 2068 2000 2062
1703 1566 1310 1224 1163 1226 1175 1374 1710 2119 2087 2512 2488 2490 2696 2673 3088 3353 3588 3622 3706 3717 3700 3790 3755 3746 3982 3977 4240 3793 3836 4128 3672 3901 3708 3576 3397 2987 2796 2827 2336 2218
1617 1555 1393 1335 1251 1326 1357 1222 1033 1399 1664 1993 2177 2482 2768 2936 3091 2984 3305 3492 3717 3758 3871 3894 3921 3727 3990 3949 4113 3853 3573 3739 3889 4206 3901 3704 3764 3543 2859 2854 2791 2398
1585 1604 1556 1419 1464 1486 1165 1087 1094 1065 1220 1483 1865 1991 2172 2732 2773 2758 2912 2986 3161 3232 3121 3335 3691 3581 3676 3887 3993 3765 3381 3115 3136 4126 3982 3830 3335 3111 2845 3085 3093 2790
1447 1518 1442 1336 1290 1257 1197 1100 1138 1193 1060 1078 1571 1660 1867 2120 2424 2518 2739 2776 2658 3095 3042 3226 3762 3615 3556 3719 3844 3877 3818 3734 3477 4121 3937 3612 3693 3545 3194 3435 3486 3335
1254 1272 1334 1270 1170 1197 1216 1099 1084 1152 1217 1270 1286 1496 1739 1657 2066 2088 2496 2607 2527 3031 3346 3445 3908 3955 3531 3503 3691 3726 3756 3475 3702 4016 4008 3781 3702 3736 3658 3552 3674 3718
1194 1283 1256 1239 1118 1107 1042 948 986 1012 1065 1122 912 995 1534 1520 1852 1764 2413 2796 2718 3015 3669 3603 4000 3873 3596 3560 3613 3742 3754 3397 3153 3588 3725 3575 3727 3751 3498 3626 3617 3747
1321 1235 1061 1036 967 987 983 946 872 872 984 898 915 894 1268 1593 1686 1835 2466 2865 2779 3155 3558 3536 3823 3654 3688 3654 3738 3736 3660 3784 3675 3623 3524 3384 3370 3287 3153 3499 3427 3578
1189 1113 1070 992 901 892 925 897 885 820 824 761 797 784 1003 1504 1913 2043 2389 2722 2434 2722 3170 3476 3515 3570 3705 3396 3576 3592 3638 3554 3588 3771 3673 3614 3399 3356 3310 3448 3382 3205
1232 1107 1048 1031 953 905 885 884 897 875 806 756 706 786 950 1189 1794 1885 2118 2464 2466 2503 2860 3346 3449 3571 3712 3564 3364 3472 3577 3475 3519 3705 3546 3679 3572 3379 3367 3309 3196 3388
1244 1217 1190 1059 1092 979 911 891 850 866 842 776 731 696 770 888 1162 1638 2046 2093 2465 2478 2463 2805 3216 3262 3624 3739 3504 3464 3515 3564 3147 3342 3405 3453 3526 3309 3185 3196 3202 3180
1295 1338 1241 1243 1208 1253 1140 971 869 842 920 885 848 740 634 626 772 1169 1720 1755 2063 2167 2380 2516 3043 3124 3456 3682 3574 3365 3323 3417 3246 3069 2989 3158 3166 3287 3128 3031 3159 3159
1606 1478 1406 1422 1383 1495 1354 1196 1047 982 954 975 1041 903 634 536 565 656 1167 1530 1677 2054 2143 2300 2455 2723 2865 3176 3433 3411 3282 3100 3182 3130 2990 2964 3063 2872 2912 2984 2965 2991
1908 1680 1587 1669 1570 1590 1603 1383 1237 1158 824 1011 1010 1011 906 834 702 650 707 1178 1550 1987 2071 2035 2150 2365 2503 2156 2535 3076 3263 2755 2965 3123 2989 2800 3042 3008 2748 2904 2852 2845
1980 1824 1833 1886 1744 1666 1667 1561 1369 1267 1170 1184 983 877 1062 1264 1152 904 729 647 848 1190 1595 1693 1806 1885 1649 1512 1567 1801 2422 2937 2837 3191 3181 3037 2875 3140 2921 2570 2715 2957
1798 1954 1965 1952 1886 1842 1756 1735 1487 1405 1368 1385 1285 918 1300 1129 1104 889 1043 719 744 799 896 1182 1461 1246 1084 1029 1035 1132 1422 2227 2473 2444 2547 2753 2572 2445 2697 2702 2694 2810
2060 2129 2132 2039 2074 1976 2002 2036 1821 1673 1575 1496 1168 1001 1046 1078 1113 1127 1107 1061 988 893 750 674 999 894 695 611 644 752 886 1219 1699 2083 2053 2224 2296 2437 2451 2776 2978 3047
2242 2153 2156 2099 2214 2176 2099 2007 1857 1877 1582 1433 1165 1152 1094 1135 1226 1243 1273 1269 1260 1228 1138 1027 919 828 145 0 0 0 258 782 1501 1566 1999 1951 2150 2300 2306 2590 2948 3002
2119 2217 2253 2323 2376 2346 2254 2112 1989 1963 1733 1494 1420 1378 1492 1485 1297 1327 1374 1386 1390 1410 1396 1356 1303 1174 1012 827 386 0 0 22 1145 1247 1383 1833 2095 2274 2601 2507 2907 2900
1962 2180 2255 2336 2369 2305 2256 2214 2199 2236 2148 1827 1627 1238 1305 1345 1407 1433 1462 1507 1527 1540 1536 1537 1533 1484 1399 1270 1081 845 496 92 1026 1463 1388 1510 1970 2384 2539 2837 2798 2878
1796 1880 2192 2171 2216 2223 2245 2202 2258 2359 2260 2107 1750 1451 1490 1508 1548 1576 1588 1611 1641 1653 1677 1684 1688 1672 1635 1590 1502 1363 1170 915 1087 1555 1767 1780 1880 2471 2688 2642 2676 2816
2155 2370 2272 2249 2222 2210 2252 2098 2113 2170 2127 2092 1782 1660 1689 1692 1728 1776 1816 1854 1902 1936 1948 1944 1926 1879 1815 1742 1671 1626 1518 1364 1294 1576 1848 2060 2126 2309 2440 2498 2551 2387
1565 2357 2653 2241 2297 2251 2027 2115 2100 2184 1748 1794 1801 1814 1854 1938 1951 2015 2095 2185 2241 2282 2283 2277 2268 2268 2204 2122 2000 1869 1739 1599 1422 1521 1714 1984 2137 2202 2339 2474 2714 2537
1644 1720 2622 2834 2571 2553 2407 2367 2448 2305 2269 2005 2025 2024 2024 2050 2095 2134 2189 2285 2382 2453 2476 2531 2544 2575 2561 2500 2354 2212 2019 1811 1566 1374 1560 1783 2018 2005 2305 2630 2565 2891
Wind_Speed
4 5 6 6 7 8 9 8 8 7 7 7 7 7 7 6 6 6 5 6 6 7 8 9 10 11 11 10 9 9 9 8 8 7 6 7 7 8 8 7 8 8
3 4 7 7 9 9 10 9 8 8 8 8 9 9 8 8 7 6 6 6 6 7 8 9 10 10 11 11 10 10 10 9 8 7 7 6 7 7 8 7 8 8
4 5 5 5 7 7 7 8 9 9 9 9 9 9 9 8 8 7 7 6 6 7 8 10 10 10 11 11 11 10 10 10 10 8 7 7 7 7 8 7 8 7
5 5 6 7 8 8 8 9 9 10 10 10 8 9 9 10 8 7 7 6 7 7 8 9 10 10 11 11 10 11 10 10 11 11 10 9 8 7 7 7 8 8
5 6 8 9 9 9 10 9 8 8 8 9 9 8 9 9 8 7 7 7 7 7 8 8 9 9 11 11 10 10 10 10 10 10 11 10 9 8 7 7 7 7
8 9 9 9 10 10 9 9 9 8 7 7 7 9 8 7 7 7 7 7 6 6 6 7 7 8 9 10 10 10 10 10 10 9 10 10 10 9 9 8 6 6
10 9 8 10 9 9 9 10 10 10 9 8 10 8 8 8 7 7 7 7 6 6 5 6 7 7 8 9 9 9 9 9 9 9 8 10 10 9 9 8 6 6
11 11 10 10 8 9 9 10 10 11 11 11 8 9 9 8 7 8 8 7 6 5 5 5 6 7 7 8 8 8 8 9 8 8 8 9 10 9 8 8 7 6
14 14 13 9 8 10 9 9 10 11 12 10 9 9 9 8 8 7 8 8 7 7 6 6 6 6 7 7 7 7 7 7 8 8 8 7 7 8 8 8 6 6
15 15 13 11 9 10 10 9 11 12 12 10 10 10 10 10 8 7 8 8 7 7 6 6 6 6 7 7 6 6 6 6 7 7 8 7 7 7 7 7 6 6
14 14 13 12 10 12 10 10 11 12 13 11 11 10 10 11 10 9 9 8 8 6 7 6 6 6 6 6 6 7 6 6 6 6 7 7 7 7 7 6 5 4
16 14 12 12 12 13 13 13 13 13 13 13 11 11 11 11 10 10 10 9 8 8 7 7 7 7 6 5 5 6 7 6 7 6 6 7 7 7 7 6 5 4
17 15 15 15 15 16 18 17 15 14 13 13 13 12 11 10 10 9 11 10 9 9 8 7 7 7 7 6 6 7 7 6 6 6 6 7 7 7 8 7 6 5
17 18 18 18 19 20 20 19 18 17 16 16 16 14 12 10 10 10 12 12 10 9 9 9 9 8 8 7 7 7 8 7 7 6 6 6 7 7 8 7 7 6
21 21 22 22 22 23 21 21 21 20 20 20 18 16 15 13 12 12 13 12 11 11 10 10 9 9 9 9 9 8 9 8 7 7 6 7 7 7 7 7 7 7
22 23 23 23 23 23 23 22 22 22 22 21 19 18 17 17 15 14 12 12 12 12 12 11 10 10 10 10 10 11 10 10 10 9 8 7 7 7 7 6 6 6
22 21 23 23 23 24 25 23 22 23 23 22 21 21 19 20 18 15 12 12 12 12 11 11 11 11 11 12 10 9 11 12 11 11 10 9 8 8 7 7 7 6
21 21 21 21 22 23 24 25 25 24 24 23 23 22 23 22 20 17 16 14 14 13 11 10 10 10 13 13 11 10 10 11 13 13 12 11 9 8 9 9 7 7
22 21 20 20 20 22 24 26 26 24 23 23 21 22 23 22 20 19 18 17 16 14 12 10 10 11 14 14 13 13 11 10 13 14 14 13 12 10 10 10 10 9
24 22 20 19 20 21 23 23 23 22 21 22 23 24 23 22 20 19 20 19 18 16 15 13 12 14 16 nan nan nan 15 14 13 13 15 14 13 13 13 11 10 10
26 23 21 21 20 20 20 20 20 21 21 22 23 22 22 22 21 20 19 19 17 17 16 15 14 14 19 18 17 nan nan nan 15 14 15 16 16 15 14 13 13 12
28 25 23 22 22 20 18 17 18 20 21 22 23 22 22 22 22 21 19 18 17 16 15 13 13 16 19 19 19 19 22 nan 20 16 14 16 18 17 17 17 15 14
29 27 25 24 22 20 18 17 17 19 20 22 21 20 20 21 21 20 20 18 17 16 14 13 14 18 21 20 21 22 26 23 21 20 18 15 16 19 20 19 18 16
45 32 27 27 24 21 18 17 17 19 19 21 19 19 18 18 19 19 19 18 16 15 15 14 14 18 22 21 23 26 26 23 22 21 18 17 17 17 19 19 18 16
47 43 31 27 26 22 20 18 17 18 19 19 18 17 16 18 18 17 17 17 15 14 15 13 13 16 23 23 24 27 26 23 22 19 17 17 18 18 18 18 19 20
50 47 41 32 28 26 24 21 21 19 18 17 16 16 16 16 16 16 14 15 15 14 14 13 12 15 23 25 26 27 27 23 21 19 15 16 18 18 19 19 18 19
Wind_Direction
184 176 160 166 165 175 191 193 188 186 192 193 195 204 202 201 207 212 209 204 194 180 178 175 180 183 187 186 181 177 174 165 156 160 153 153 153 147 152 160 164 165
179 176 178 174 177 185 191 194 194 190 194 195 196 209 209 209 214 215 218 214 205 194 193 193 190 188 189 189 189 183 180 178 165 172 165 156 152 149 145 153 161 176
186 176 169 166 164 171 173 189 189 187 187 189 199 204 209 212 211 216 217 217 211 203 209 206 202 197 195 192 192 186 180 180 173 176 180 168 160 161 156 161 165 168
192 177 169 166 174 181 187 193 190 188 186 194 193 200 204 208 213 217 219 221 213 214 214 214 208 202 201 198 196 190 187 184 180 186 185 182 178 171 170 176 172 174
202 191 180 180 185 191 193 187 179 186 179 184 195 200 205 208 210 208 216 219 212 210 217 220 220 210 211 206 203 194 195 191 193 195 191 184 189 191 183 189 185 174
211 201 194 189 193 199 189 180 179 182 183 186 187 197 199 209 208 207 213 214 211 203 204 216 226 221 217 214 210 200 197 193 198 203 194 188 188 198 195 203 192 180
231 218 202 193 187 193 193 189 187 188 190 185 204 199 205 210 214 214 216 215 203 203 199 214 228 232 227 222 215 208 202 199 199 209 200 196 197 196 202 209 200 187
235 229 218 204 193 195 195 195 193 197 198 204 202 204 211 208 214 214 216 217 210 204 204 211 228 238 238 232 225 218 210 210 208 213 211 204 204 200 206 211 212 201
236 234 234 224 205 197 195 193 198 200 205 203 195 202 212 211 216 214 219 222 216 211 212 209 224 232 234 237 232 228 220 209 212 220 220 215 216 211 208 214 213 209
236 235 240 237 225 209 203 198 200 204 208 204 202 202 213 217 217 221 226 226 222 219 216 213 221 225 230 235 236 232 223 218 219 224 223 220 216 220 224 227 217 208
236 236 236 237 235 226 222 217 211 209 210 208 206 201 208 220 219 222 226 231 226 225 225 224 223 230 231 226 228 227 224 219 221 227 229 229 224 223 232 236 225 201
234 236 237 240 237 233 234 233 227 220 217 216 211 207 211 213 220 220 225 233 233 234 237 236 235 237 240 230 224 225 223 217 217 221 222 226 226 227 227 228 216 203
233 234 234 236 236 233 233 234 235 232 228 223 222 215 213 210 212 217 222 229 236 239 243 249 250 248 244 241 226 220 222 219 211 213 215 217 216 219 222 222 213 202
228 231 231 232 233 234 234 234 236 237 235 232 230 227 220 215 213 217 221 226 230 235 241 248 256 258 257 250 237 228 224 221 218 210 208 211 211 215 217 219 220 209
226 226 227 230 233 236 238 237 237 238 239 239 238 234 228 224 221 217 222 227 230 233 239 245 252 258 258 258 252 245 231 224 226 222 216 211 211 209 214 216 218 218
228 226 227 230 233 235 238 240 238 239 241 243 242 241 238 236 234 230 226 231 237 240 240 238 241 245 263 289 272 250 247 234 231 229 225 220 218 215 212 215 214 214
231 230 230 232 232 233 235 239 241 240 241 242 243 244 245 246 246 245 239 233 238 243 246 240 236 241 274 285 290 279 250 242 240 237 238 236 229 226 219 217 219 225
234 233 234 233 234 235 237 239 241 242 243 246 247 248 247 247 248 250 247 246 243 247 250 246 239 247 271 281 288 290 271 243 238 236 237 239 236 231 228 226 225 229
234 234 235 235 237 239 240 241 243 244 246 248 250 250 249 250 250 251 253 255 253 254 255 254 244 259 274 281 283 286 286 262 234 234 235 235 237 239 237 235 234 234
231 231 231 233 235 239 241 244 247 248 249 248 249 252 254 256 258 255 252 254 255 255 253 251 251 261 282 nan nan nan 283 269 241 235 232 229 232 236 237 240 242 240
228 229 230 232 235 239 241 244 247 246 249 248 250 254 256 257 257 257 255 256 257 256 252 250 251 267 277 285 283 nan nan nan 250 242 232 229 230 233 237 240 243 242
226 227 230 232 236 238 241 243 244 246 249 248 246 247 248 250 253 255 257 258 257 255 251 248 247 268 276 281 284 280 278 nan 256 253 245 235 232 233 235 238 241 242
221 226 227 231 235 239 242 245 246 246 247 247 248 248 248 251 254 259 258 260 264 264 264 252 244 262 275 279 280 281 270 261 261 258 254 250 242 239 238 238 240 243
212 216 226 231 232 234 238 240 244 244 247 250 251 251 251 252 254 257 261 264 270 271 270 262 252 259 275 278 280 282 279 268 264 263 262 261 256 253 247 242 242 250
214 211 217 228 230 229 229 232 240 245 248 250 251 251 248 247 250 252 256 259 264 268 270 269 254 258 277 282 285 286 284 270 271 270 272 270 267 265 263 255 249 254
217 212 213 221 228 230 227 227 231 238 244 248 249 248 246 247 248 249 253 253 255 260 261 267 261 256 270 287 289 291 297 282 278 282 284 281 275 270 267 266 264 257